Location: Unspecified
(0.0000°N, 0.0000°E)
Time: 20:32:48
(UTC+00:00)

Vanguard 2 - Visible Passes

Search period start: 14 July 2020 00:00
Search period end: 24 July 2020 00:00
Orbit: 552 x 2938 km, 32.9° (Epoch: 13 July)

Date Brightness Start Highest point End Pass type
(mag) Time Alt. Az. Time Alt. Az. Time Alt. Az.
14 Jul 11.4 18:14:04 10° SW 18:23:32 16° SSW 18:32:09 10° SSE visible
14 Jul 11.2 20:36:02 10° SSW 20:39:31 12° S 20:39:31 12° S visible
15 Jul 11.3 18:35:17 10° SW 18:43:17 14° S 18:50:32 10° SSE visible
15 Jul 11.2 20:53:36 10° SSW 20:56:26 13° S 20:56:26 13° S visible
16 Jul 11.2 18:55:44 10° SSW 19:03:08 14° S 19:09:43 10° SSE visible
16 Jul 11.3 21:11:01 10° SSW 21:13:23 13° SSW 21:13:23 13° SSW visible
17 Jul 11.1 19:15:07 10° SSW 19:22:57 15° S 19:28:57 11° SSE visible
17 Jul 11.3 21:28:26 10° SSW 21:30:22 13° SSW 21:30:22 13° SSW visible
18 Jul 11.0 19:33:35 10° SSW 19:42:36 17° S 19:46:00 15° SSE visible
18 Jul 11.4 21:45:56 10° SW 21:47:25 13° SSW 21:47:25 13° SSW visible
19 Jul 10.8 19:51:32 10° SSW 20:02:02 20° SSE 20:03:05 20° SSE visible
19 Jul 11.4 22:03:33 10° SW 22:04:32 12° SW 22:04:32 12° SW visible
20 Jul 10.7 20:09:15 10° SSW 20:20:17 25° SSE 20:20:17 25° SSE visible
20 Jul 11.5 22:21:21 10° SW 22:21:43 11° SW 22:21:43 11° SW visible
21 Jul 11.1 18:13:59 10° SSW 18:24:21 18° S 18:33:31 10° SE visible
21 Jul 10.5 20:26:54 10° SW 20:37:33 30° S 20:37:33 30° S visible
22 Jul 11.0 18:32:15 10° SSW 18:43:58 21° SSE 18:53:27 11° SE visible
22 Jul 10.4 20:44:35 10° SW 20:54:55 35° S 20:54:55 35° S visible
23 Jul 10.7 18:50:11 10° SSW 19:03:21 25° SSE 19:10:55 17° ESE visible
23 Jul 10.3 21:02:22 10° SW 21:12:23 40° SSW 21:12:23 40° SSW visible
